Time,TemperatureF,DewpointF,PressureIn,WindDirection,WindDirectionDegrees,WindSpeedMPH,WindSpeedGustMPH,Humidity,HourlyPrecipIn,Conditions,Clouds,dailyrainin,SoftwareType,DateUTC
2013-05-18 00:01:00,61.0,54.0,-100.00,ESE,122,2.0,4.0,78,-99.99,,,-99.99,,2013-05-18 07:01:00,
2013-05-18 00:11:00,61.0,54.0,-100.00,SE,137,2.0,4.0,77,-99.99,,,-99.99,,2013-05-18 07:11:00,
2013-05-18 00:21:00,61.0,54.0,-100.00,SSE,149,1.0,3.0,77,-99.99,,,-99.99,,2013-05-18 07:21:00,
2013-05-18 00:31:00,61.0,53.0,-100.00,SSE,164,1.0,4.0,76,-99.99,,,-99.99,,2013-05-18 07:31:00,
2013-05-18 00:42:00,61.0,53.0,-100.00,SSE,164,1.0,3.0,76,-99.99,,,-99.99,,2013-05-18 07:42:00,
2013-05-18 00:52:00,61.0,53.0,-100.00,SSE,155,0.0,1.0,76,-99.99,,,-99.99,,2013-05-18 07:52:00,
2013-05-18 01:01:00,61.0,53.0,-100.00,SE,138,1.0,2.0,76,-99.99,,,-99.99,,2013-05-18 08:01:00,
2013-05-18 01:11:00,61.0,53.0,-100.00,SSE,163,0.0,1.0,76,-99.99,,,-99.99,,2013-05-18 08:11:00,
2013-05-18 01:21:00,61.0,53.0,-100.00,SSW,196,0.0,1.0,76,-99.99,,,-99.99,,2013-05-18 08:21:00,
2013-05-18 01:32:00,61.0,53.0,-100.00,SSW,193,0.0,1.0,76,-99.99,,,-99.99,,2013-05-18 08:32:00,
2013-05-18 01:42:00,61.0,53.0,-100.00,SSW,193,0.0,1.0,76,-99.99,,,-99.99,,2013-05-18 08:42:00,
2013-05-18 01:52:00,61.0,53.0,-100.00,SSE,155,1.0,2.0,76,-99.99,,,-99.99,,2013-05-18 08:52:00,
2013-05-18 02:02:00,61.0,54.0,-100.00,SSE,164,1.0,2.0,77,-99.99,,,-99.99,,2013-05-18 09:02:00,
2013-05-18 02:11:00,61.0,54.0,-100.00,SSE,157,1.0,4.0,77,-99.99,,,-99.99,,2013-05-18 09:11:00,
2013-05-18 02:22:00,61.0,54.0,-100.00,South,186,1.0,3.0,79,-99.99,,,-99.99,,2013-05-18 09:22:00,
2013-05-18 02:32:00,61.0,55.0,-100.00,South,185,1.0,4.0,81,-99.99,,,-99.99,,2013-05-18 09:32:00,
2013-05-18 02:43:00,60.0,54.0,-100.00,SSW,195,1.0,4.0,82,-99.99,,,-99.99,,2013-05-18 09:43:00,
2013-05-18 02:53:00,60.0,55.0,-100.00,SSW,203,1.0,4.0,83,-99.99,,,-99.99,,2013-05-18 09:53:00,
2013-05-18 03:02:00,60.0,55.0,-100.00,SSW,208,1.0,3.0,83,-99.99,,,-99.99,,2013-05-18 10:02:00,
2013-05-18 03:12:00,60.0,55.0,-100.00,SW,223,1.0,2.0,83,-99.99,,,-99.99,,2013-05-18 10:12:00,
2013-05-18 03:22:00,60.0,55.0,-100.00,SSW,193,0.0,1.0,83,-99.99,,,-99.99,,2013-05-18 10:22:00,
2013-05-18 03:33:00,60.0,55.0,-100.00,SSW,199,0.0,1.0,83,-99.99,,,-99.99,,2013-05-18 10:33:00,
2013-05-18 03:42:00,60.0,55.0,-100.00,SSW,198,0.0,1.0,83,-99.99,,,-99.99,,2013-05-18 10:42:00,
2013-05-18 03:52:00,59.0,54.0,-100.00,South,180,0.0,1.0,83,-99.99,,,-99.99,,2013-05-18 10:52:00,
2013-05-18 04:02:00,59.0,54.0,-100.00,South,186,0.0,1.0,83,-99.99,,,-99.99,,2013-05-18 11:02:00,
2013-05-18 04:12:00,59.0,54.0,-100.00,SSW,209,0.0,1.0,84,-99.99,,,-99.99,,2013-05-18 11:12:00,
2013-05-18 04:22:00,59.0,54.0,-100.00,SW,224,1.0,1.0,84,-99.99,,,-99.99,,2013-05-18 11:22:00,
2013-05-18 04:33:00,59.0,54.0,-100.00,SW,214,1.0,1.0,84,-99.99,,,-99.99,,2013-05-18 11:33:00,
2013-05-18 04:42:00,59.0,54.0,-100.00,South,177,0.0,1.0,84,-99.99,,,-99.99,,2013-05-18 11:42:00,
2013-05-18 04:52:00,59.0,54.0,-100.00,SE,138,0.0,1.0,83,-99.99,,,-99.99,,2013-05-18 11:52:00,
2013-05-18 05:01:00,59.0,54.0,-100.00,SE,131,0.0,1.0,83,-99.99,,,-99.99,,2013-05-18 12:01:00,
2013-05-18 05:12:00,59.0,54.0,-100.00,SE,124,0.0,1.0,84,-99.99,,,-99.99,,2013-05-18 12:12:00,
2013-05-18 05:23:00,59.0,54.0,-100.00,SSE,153,0.0,1.0,84,-99.99,,,-99.99,,2013-05-18 12:23:00,
2013-05-18 05:33:00,59.0,54.0,-100.00,South,174,0.0,1.0,83,-99.99,,,-99.99,,2013-05-18 12:33:00,
2013-05-18 05:41:00,59.0,54.0,-100.00,South,187,0.0,1.0,83,-99.99,,,-99.99,,2013-05-18 12:41:00,
2013-05-18 05:51:00,59.0,54.0,-100.00,SSW,212,0.0,1.0,83,-99.99,,,-99.99,,2013-05-18 12:51:00,
2013-05-18 06:01:00,59.0,54.0,-100.00,SSW,212,0.0,1.0,84,-99.99,,,-99.99,,2013-05-18 13:01:00,
2013-05-18 06:11:00,59.0,54.0,-100.00,SSW,192,0.0,1.0,84,-99.99,,,-99.99,,2013-05-18 13:11:00,
2013-05-18 06:21:00,59.0,54.0,-100.00,SW,234,1.0,2.0,84,-99.99,,,-99.99,,2013-05-18 13:21:00,
2013-05-18 06:32:00,58.0,53.0,-100.00,SW,231,0.0,1.0,84,-99.99,,,-99.99,,2013-05-18 13:32:00,
2013-05-18 06:43:00,58.0,53.0,-100.00,SE,138,0.0,1.0,84,-99.99,,,-99.99,,2013-05-18 13:43:00,
2013-05-18 06:52:00,58.0,53.0,-100.00,SSW,208,0.0,1.0,84,-99.99,,,-99.99,,2013-05-18 13:52:00,
2013-05-18 07:03:00,58.0,53.0,-100.00,SW,232,0.0,1.0,84,-99.99,,,-99.99,,2013-05-18 14:03:00,
2013-05-18 07:12:00,58.0,53.0,-100.00,South,174,0.0,1.0,84,-99.99,,,-99.99,,2013-05-18 14:12:00,
2013-05-18 07:22:00,58.0,53.0,-100.00,South,174,0.0,1.0,84,-99.99,,,-99.99,,2013-05-18 14:22:00,
2013-05-18 07:32:00,58.0,53.0,-100.00,South,177,0.0,1.0,83,-99.99,,,-99.99,,2013-05-18 14:32:00,
2013-05-18 07:42:00,59.0,54.0,-100.00,SSW,213,1.0,2.0,83,-99.99,,,-99.99,,2013-05-18 14:42:00,
2013-05-18 07:54:00,59.0,54.0,-100.00,SW,231,1.0,1.0,82,-99.99,,,-99.99,,2013-05-18 14:54:00,
2013-05-18 08:03:00,60.0,54.0,-100.00,WSW,239,1.0,3.0,81,-99.99,,,-99.99,,2013-05-18 15:03:00,
2013-05-18 08:13:00,60.0,54.0,-100.00,SW,232,1.0,5.0,80,-99.99,,,-99.99,,2013-05-18 15:13:00,
2013-05-18 08:23:00,61.0,54.0,-100.00,South,188,1.0,4.0,77,-99.99,,,-99.99,,2013-05-18 15:23:00,
2013-05-18 08:33:00,62.0,54.0,-100.00,South,182,1.0,4.0,74,-99.99,,,-99.99,,2013-05-18 15:33:00,
2013-05-18 08:43:00,63.0,54.0,-100.00,SSW,195,1.0,3.0,72,-99.99,,,-99.99,,2013-05-18 15:43:00,
2013-05-18 08:53:00,63.0,53.0,-100.00,SW,229,1.0,3.0,69,-99.99,,,-99.99,,2013-05-18 15:53:00,
2013-05-18 09:02:00,65.0,53.0,-100.00,SW,229,1.0,4.0,66,-99.99,,,-99.99,,2013-05-18 16:02:00,
2013-05-18 09:12:00,65.0,53.0,-100.00,SSW,197,2.0,5.0,65,-99.99,,,-99.99,,2013-05-18 16:12:00,
2013-05-18 09:22:00,65.0,53.0,-100.00,SSE,165,1.0,4.0,65,-99.99,,,-99.99,,2013-05-18 16:22:00,
2013-05-18 09:32:00,65.0,53.0,-100.00,South,181,1.0,6.0,65,-99.99,,,-99.99,,2013-05-18 16:32:00,
2013-05-18 09:42:00,65.0,53.0,-100.00,SSW,200,2.0,8.0,65,-99.99,,,-99.99,,2013-05-18 16:42:00,
2013-05-18 09:52:00,65.0,53.0,-100.00,SSE,168,1.0,7.0,64,-99.99,,,-99.99,,2013-05-18 16:52:00,
2013-05-18 10:02:00,65.0,53.0,-100.00,SW,222,3.0,8.0,65,-99.99,,,-99.99,,2013-05-18 17:02:00,
2013-05-18 10:12:00,65.0,53.0,-100.00,SW,219,3.0,8.0,66,-99.99,,,-99.99,,2013-05-18 17:12:00,
2013-05-18 10:22:00,64.0,54.0,-100.00,SW,222,4.0,9.0,69,-99.99,,,-99.99,,2013-05-18 17:22:00,
2013-05-18 10:32:00,64.0,53.0,-100.00,SW,235,4.0,7.0,68,-99.99,,,-99.99,,2013-05-18 17:32:00,
2013-05-18 10:42:00,64.0,53.0,-100.00,SW,229,3.0,9.0,67,-99.99,,,-99.99,,2013-05-18 17:42:00,
2013-05-18 10:51:00,66.0,53.0,-100.00,SW,232,3.0,8.0,64,-99.99,,,-99.99,,2013-05-18 17:51:00,
2013-05-18 11:01:00,67.0,54.0,-100.00,South,188,2.0,7.0,62,-99.99,,,-99.99,,2013-05-18 18:01:00,
2013-05-18 11:12:00,67.0,53.0,-100.00,SSW,194,3.0,9.0,61,-99.99,,,-99.99,,2013-05-18 18:12:00,
2013-05-18 11:21:00,68.0,53.0,-100.00,South,188,4.0,10.0,59,-99.99,,,-99.99,,2013-05-18 18:21:00,
2013-05-18 11:31:00,69.0,53.0,-100.00,SSE,161,3.0,9.0,56,-99.99,,,-99.99,,2013-05-18 18:31:00,
2013-05-18 11:42:00,68.0,53.0,-100.00,SW,226,4.0,10.0,58,-99.99,,,-99.99,,2013-05-18 18:42:00,
2013-05-18 11:51:00,67.0,53.0,-100.00,WSW,253,4.0,9.0,60,-99.99,,,-99.99,,2013-05-18 18:51:00,
2013-05-18 12:01:00,67.0,53.0,-100.00,SW,235,5.0,9.0,60,-99.99,,,-99.99,,2013-05-18 19:01:00,
2013-05-18 12:11:00,67.0,53.0,-100.00,SW,219,3.0,8.0,61,-99.99,,,-99.99,,2013-05-18 19:11:00,
2013-05-18 12:22:00,67.0,53.0,-100.00,SSW,212,3.0,9.0,60,-99.99,,,-99.99,,2013-05-18 19:22:00,
2013-05-18 12:31:00,67.0,53.0,-100.00,SSW,203,2.0,10.0,60,-99.99,,,-99.99,,2013-05-18 19:31:00,
2013-05-18 12:42:00,67.0,53.0,-100.00,SSE,157,2.0,7.0,60,-99.99,,,-99.99,,2013-05-18 19:42:00,
2013-05-18 12:52:00,68.0,53.0,-100.00,South,185,3.0,6.0,58,-99.99,,,-99.99,,2013-05-18 19:52:00,
2013-05-18 13:01:00,68.0,53.0,-100.00,South,185,3.0,6.0,58,-99.99,,,-99.99,,2013-05-18 20:01:00,
2013-05-18 13:11:00,69.0,53.0,-100.00,SSE,155,3.0,10.0,57,-99.99,,,-99.99,,2013-05-18 20:11:00,
2013-05-18 13:22:00,70.0,53.0,-100.00,South,189,3.0,9.0,55,-99.99,,,-99.99,,2013-05-18 20:22:00,
2013-05-18 13:32:00,70.0,53.0,-100.00,SW,236,4.0,9.0,54,-99.99,,,-99.99,,2013-05-18 20:32:00,
2013-05-18 13:42:00,71.0,54.0,-100.00,SSW,208,3.0,9.0,54,-99.99,,,-99.99,,2013-05-18 20:42:00,
2013-05-18 13:52:00,70.0,53.0,-100.00,WSW,241,6.0,11.0,55,-99.99,,,-99.99,,2013-05-18 20:52:00,
2013-05-18 14:01:00,70.0,53.0,-100.00,SW,230,5.0,11.0,55,-99.99,,,-99.99,,2013-05-18 21:01:00,
2013-05-18 14:11:00,69.0,53.0,-100.00,SSW,200,4.0,11.0,56,-99.99,,,-99.99,,2013-05-18 21:11:00,
2013-05-18 14:21:00,70.0,54.0,-100.00,SW,215,4.0,12.0,56,-99.99,,,-99.99,,2013-05-18 21:21:00,
2013-05-18 14:32:00,70.0,54.0,-100.00,WSW,254,4.0,10.0,56,-99.99,,,-99.99,,2013-05-18 21:32:00,
2013-05-18 14:43:00,71.0,53.0,-100.00,South,187,2.0,10.0,53,-99.99,,,-99.99,,2013-05-18 21:43:00,
2013-05-18 14:53:00,70.0,53.0,-100.00,SSW,194,3.0,9.0,55,-99.99,,,-99.99,,2013-05-18 21:53:00,
2013-05-18 15:03:00,71.0,54.0,-100.00,SW,219,5.0,11.0,54,-99.99,,,-99.99,,2013-05-18 22:03:00,
2013-05-18 15:12:00,71.0,53.0,-100.00,South,170,2.0,7.0,53,-99.99,,,-99.99,,2013-05-18 22:12:00,
2013-05-18 15:23:00,71.0,53.0,-100.00,WSW,241,5.0,11.0,53,-99.99,,,-99.99,,2013-05-18 22:23:00,
2013-05-18 15:32:00,71.0,53.0,-100.00,SW,217,4.0,9.0,53,-99.99,,,-99.99,,2013-05-18 22:32:00,
2013-05-18 15:42:00,71.0,53.0,-100.00,SW,232,4.0,9.0,53,-99.99,,,-99.99,,2013-05-18 22:42:00,
2013-05-18 15:52:00,72.0,53.0,-100.00,SW,215,4.0,10.0,52,-99.99,,,-99.99,,2013-05-18 22:52:00,
2013-05-18 16:01:00,71.0,53.0,-100.00,SSW,211,5.0,10.0,53,-99.99,,,-99.99,,2013-05-18 23:01:00,
2013-05-18 16:11:00,71.0,52.0,-100.00,SW,223,4.0,10.0,52,-99.99,,,-99.99,,2013-05-18 23:11:00,
2013-05-18 16:21:00,72.0,53.0,-100.00,SW,218,3.0,9.0,52,-99.99,,,-99.99,,2013-05-18 23:21:00,
2013-05-18 16:32:00,72.0,53.0,-100.00,SW,225,4.0,8.0,51,-99.99,,,-99.99,,2013-05-18 23:32:00,
2013-05-18 16:41:00,72.0,52.0,-100.00,SW,228,4.0,10.0,50,-99.99,,,-99.99,,2013-05-18 23:41:00,
2013-05-18 16:52:00,72.0,52.0,-100.00,SW,232,5.0,9.0,50,-99.99,,,-99.99,,2013-05-18 23:52:00,
2013-05-18 17:01:00,71.0,52.0,-100.00,SW,228,5.0,10.0,52,-99.99,,,-99.99,,2013-05-19 00:01:00,
2013-05-18 17:11:00,71.0,53.0,-100.00,SW,219,5.0,10.0,53,-99.99,,,-99.99,,2013-05-19 00:11:00,
2013-05-18 17:21:00,70.0,53.0,-100.00,SSW,212,4.0,10.0,54,-99.99,,,-99.99,,2013-05-19 00:21:00,
2013-05-18 17:31:00,71.0,53.0,-100.00,SW,215,4.0,7.0,53,-99.99,,,-99.99,,2013-05-19 00:31:00,
2013-05-18 17:41:00,71.0,53.0,-100.00,SW,215,4.0,7.0,53,-99.99,,,-99.99,,2013-05-19 00:41:00,
2013-05-18 17:51:00,71.0,53.0,-100.00,SW,221,3.0,9.0,53,-99.99,,,-99.99,,2013-05-19 00:51:00,
2013-05-18 18:01:00,71.0,54.0,-100.00,WSW,243,4.0,8.0,54,-99.99,,,-99.99,,2013-05-19 01:01:00,
2013-05-18 18:11:00,70.0,53.0,-100.00,SW,215,3.0,6.0,55,-99.99,,,-99.99,,2013-05-19 01:11:00,
2013-05-18 18:21:00,71.0,54.0,-100.00,SW,224,3.0,7.0,55,-99.99,,,-99.99,,2013-05-19 01:21:00,
2013-05-18 18:32:00,71.0,54.0,-100.00,SW,229,2.0,5.0,55,-99.99,,,-99.99,,2013-05-19 01:32:00,
2013-05-18 18:41:00,70.0,53.0,-100.00,WSW,254,2.0,7.0,55,-99.99,,,-99.99,,2013-05-19 01:41:00,
2013-05-18 18:52:00,71.0,54.0,-100.00,WSW,250,2.0,6.0,55,-99.99,,,-99.99,,2013-05-19 01:52:00,
2013-05-18 19:01:00,70.0,54.0,-100.00,WSW,248,3.0,7.0,56,-99.99,,,-99.99,,2013-05-19 02:01:00,
2013-05-18 19:11:00,70.0,54.0,-100.00,WSW,242,3.0,7.0,57,-99.99,,,-99.99,,2013-05-19 02:11:00,
2013-05-18 19:21:00,69.0,53.0,-100.00,SW,231,2.0,5.0,57,-99.99,,,-99.99,,2013-05-19 02:21:00,
2013-05-18 19:31:00,69.0,54.0,-100.00,WSW,239,3.0,5.0,58,-99.99,,,-99.99,,2013-05-19 02:31:00,
2013-05-18 19:42:00,68.0,53.0,-100.00,WSW,241,2.0,5.0,59,-99.99,,,-99.99,,2013-05-19 02:42:00,
2013-05-18 19:52:00,68.0,53.0,-100.00,SW,236,2.0,5.0,59,-99.99,,,-99.99,,2013-05-19 02:52:00,
2013-05-18 20:01:00,67.0,53.0,-100.00,WSW,241,3.0,5.0,60,-99.99,,,-99.99,,2013-05-19 03:01:00,
2013-05-18 20:11:00,67.0,53.0,-100.00,WSW,239,2.0,6.0,60,-99.99,,,-99.99,,2013-05-19 03:11:00,
2013-05-18 20:21:00,66.0,52.0,-100.00,SSW,197,1.0,2.0,60,-99.99,,,-99.99,,2013-05-19 03:21:00,
2013-05-18 20:32:00,66.0,53.0,-100.00,SSW,197,1.0,2.0,62,-99.99,,,-99.99,,2013-05-19 03:32:00,
2013-05-18 20:42:00,65.0,52.0,-100.00,SSW,201,1.0,2.0,63,-99.99,,,-99.99,,2013-05-19 03:42:00,
2013-05-18 20:53:00,64.0,51.0,-100.00,East,101,0.0,1.0,63,-99.99,,,-99.99,,2013-05-19 03:53:00,
2013-05-18 21:02:00,63.0,51.0,-100.00,SSW,194,0.0,1.0,65,-99.99,,,-99.99,,2013-05-19 04:02:00,
2013-05-18 21:12:00,62.0,50.0,-100.00,SSW,192,0.0,1.0,65,-99.99,,,-99.99,,2013-05-19 04:12:00,
2013-05-18 21:23:00,62.0,51.0,-100.00,South,191,0.0,1.0,66,-99.99,,,-99.99,,2013-05-19 04:23:00,
2013-05-18 21:33:00,61.0,51.0,-100.00,South,191,0.0,1.0,69,-99.99,,,-99.99,,2013-05-19 04:33:00,
2013-05-18 21:42:00,61.0,52.0,-100.00,East,90,0.0,1.0,72,-99.99,,,-99.99,,2013-05-19 04:42:00,
2013-05-18 21:52:00,60.0,51.0,-100.00,East,86,0.0,1.0,72,-99.99,,,-99.99,,2013-05-19 04:52:00,
2013-05-18 22:02:00,60.0,51.0,-100.00,East,86,0.0,1.0,72,-99.99,,,-99.99,,2013-05-19 05:02:00,
2013-05-18 22:12:00,60.0,51.0,-100.00,ENE,69,1.0,3.0,73,-99.99,,,-99.99,,2013-05-19 05:12:00,
2013-05-18 22:21:00,59.0,50.0,-100.00,SW,216,0.0,1.0,73,-99.99,,,-99.99,,2013-05-19 05:21:00,
2013-05-18 22:32:00,59.0,51.0,-100.00,NW,320,0.0,1.0,76,-99.99,,,-99.99,,2013-05-19 05:32:00,
2013-05-18 22:42:00,58.0,51.0,-100.00,NNE,24,1.0,2.0,78,-99.99,,,-99.99,,2013-05-19 05:42:00,
2013-05-18 22:51:00,58.0,51.0,-100.00,North,10,0.0,1.0,78,-99.99,,,-99.99,,2013-05-19 05:51:00,
2013-05-18 23:02:00,58.0,51.0,-100.00,North,10,0.0,1.0,78,-99.99,,,-99.99,,2013-05-19 06:02:00,
2013-05-18 23:11:00,58.0,51.0,-100.00,North,358,0.0,1.0,77,-99.99,,,-99.99,,2013-05-19 06:11:00,
2013-05-18 23:21:00,57.0,50.0,-100.00,North,358,1.0,2.0,78,-99.99,,,-99.99,,2013-05-19 06:21:00,
2013-05-18 23:32:00,57.0,50.0,-100.00,NNE,33,1.0,2.0,78,-99.99,,,-99.99,,2013-05-19 06:32:00,
2013-05-18 23:42:00,57.0,51.0,-100.00,NNE,22,2.0,2.0,79,-99.99,,,-99.99,,2013-05-19 06:42:00,
2013-05-18 23:51:00,57.0,50.0,-100.00,NNE,28,2.0,3.0,78,-99.99,,,-99.99,,2013-05-19 06:51:00,